Location: Bluff Heights
(33.7692°N, 118.1592°W)
Time: 07:51:59
(UTC+00:00)

Transit 2A Rocket - Visible Passes

Search period start: 24 July 2021 00:00
Search period end: 03 August 2021 00:00
Orbit: 590 x 913 km, 66.7° (Epoch: 23 July)

Date Brightness Start Highest point End Pass type
(mag) Time Alt. Az. Time Alt. Az. Time Alt. Az.
24 Jul 6.9 08:10:32 10° N 08:14:46 27° NE 08:14:46 27° NE visible
24 Jul 6.9 09:52:39 10° NW 09:54:35 21° NW 09:54:35 21° NW visible
25 Jul 7.4 07:28:50 10° NNE 07:32:22 17° NE 07:32:31 17° NE visible
25 Jul 6.7 09:09:45 10° NNW 09:12:22 29° NW 09:12:22 29° NW visible
26 Jul 6.6 08:27:08 10° NNW 08:30:14 34° N 08:30:14 34° N visible
27 Jul 6.8 07:44:48 10° N 07:48:12 31° NNE 07:48:12 31° NNE visible
27 Jul 7.6 09:27:41 10° NW 09:28:04 12° NW 09:28:04 12° NW visible
28 Jul 7.1 07:02:47 10° N 07:06:14 22° NE 07:06:14 22° NE visible
28 Jul 7.3 08:44:30 10° NW 08:46:06 19° NW 08:46:06 19° NW visible
29 Jul 7.4 06:21:20 10° NNE 06:24:14 14° NE 06:24:20 14° NE visible
29 Jul 6.9 08:01:43 10° NNW 08:04:12 28° NNW 08:04:12 28° NNW visible
30 Jul 6.7 07:19:12 10° NNW 07:22:21 33° N 07:22:21 33° N visible
31 Jul 6.7 06:36:57 10° N 06:40:33 29° NNE 06:40:33 29° NNE visible
31 Jul 7.5 08:19:24 10° NW 08:20:25 15° NW 08:20:25 15° NW visible
01 Aug 7.0 05:55:04 10° N 05:58:48 20° NE 05:58:48 20° NE visible
01 Aug 7.1 07:36:24 10° NW 07:38:41 25° NW 07:38:41 25° NW visible
02 Aug 7.4 05:14:07 10° NNE 05:16:05 12° NE 05:17:05 11° ENE visible
02 Aug 6.5 06:53:42 10° NNW 06:56:58 36° NNW 06:56:58 36° NNW visible
